KEN5050 KBFI-KPAE

Flight info

Callsign KEN5050
Flight time 0h 27m
Altitude 4000
Route RARYO
Aircraft C208/L-SDFGRY/C

Departure

Time 2026-05-07 15:47
Airport King County International Airport - Boeing Field (KBFI)

Arrival

Time 2026-05-07 16:15
Airport Seattle Paine Field International Airport (KPAE)
Time Latitude Longitude Altitude Speed Heading
2026-05-07 15:31 47.53649 -122.30450 26 ft 0 kts 321°
2026-05-07 15:44 47.53647 -122.30459 27 ft 3 kts 222°
2026-05-07 15:44 47.53650 -122.30523 27 ft 12 kts 318°
2026-05-07 15:44 47.53738 -122.30600 26 ft 17 kts 329°
2026-05-07 15:44 47.53805 -122.30667 26 ft 7 kts 285°
2026-05-07 15:45 47.53805 -122.30678 26 ft 0 kts 258°
2026-05-07 15:45 47.53795 -122.30710 27 ft 7 kts 239°
2026-05-07 15:46 47.53757 -122.30711 27 ft 0 kts 152°
2026-05-07 15:46 47.53643 -122.30613 25 ft 45 kts 150°
2026-05-07 15:46 47.53246 -122.30276 63 ft 79 kts 151°
2026-05-07 15:47 47.52776 -122.29825 227 ft 85 kts 148°
2026-05-07 15:47 47.52270 -122.29322 399 ft 91 kts 148°
2026-05-07 15:47 47.51741 -122.28817 620 ft 93 kts 148°
2026-05-07 15:47 47.51168 -122.28278 798 ft 103 kts 149°
2026-05-07 15:48 47.50532 -122.27676 998 ft 111 kts 149°
2026-05-07 15:48 47.49870 -122.27051 1201 ft 117 kts 148°
2026-05-07 15:48 47.49407 -122.26045 1391 ft 125 kts 107°
2026-05-07 15:48 47.49334 -122.24741 1607 ft 128 kts 93°
2026-05-07 15:49 47.49334 -122.23455 1869 ft 123 kts 93°
2026-05-07 15:49 47.49330 -122.22218 2124 ft 118 kts 93°
2026-05-07 15:49 47.49612 -122.21091 2360 ft 120 kts 40°
2026-05-07 15:49 47.50382 -122.20776 2619 ft 117 kts
2026-05-07 15:50 47.51188 -122.20625 2875 ft 116 kts
2026-05-07 15:50 47.51990 -122.20478 3136 ft 115 kts
2026-05-07 15:50 47.52783 -122.20349 3397 ft 114 kts
2026-05-07 15:50 47.53563 -122.20238 3650 ft 111 kts
2026-05-07 15:51 47.54330 -122.20205 3904 ft 108 kts
2026-05-07 15:51 47.55112 -122.20163 3996 ft 119 kts
2026-05-07 15:51 47.55979 -122.20109 4002 ft 130 kts
2026-05-07 15:51 47.56913 -122.20048 4001 ft 137 kts
2026-05-07 15:52 47.57882 -122.19985 4007 ft 141 kts
2026-05-07 15:52 47.58875 -122.19930 4008 ft 144 kts
2026-05-07 15:52 47.59873 -122.19882 4007 ft 147 kts
2026-05-07 15:52 47.60895 -122.19826 4009 ft 147 kts
2026-05-07 15:53 47.61899 -122.19996 3992 ft 148 kts 335°
2026-05-07 15:53 47.62693 -122.20981 3993 ft 149 kts 318°
2026-05-07 15:53 47.63438 -122.22044 3997 ft 149 kts 319°
2026-05-07 15:53 47.64190 -122.23110 3999 ft 150 kts 319°
2026-05-07 15:54 47.64922 -122.24214 4000 ft 151 kts 310°
2026-05-07 15:54 47.65519 -122.25503 3998 ft 152 kts 306°
2026-05-07 15:54 47.66104 -122.26819 4000 ft 153 kts 306°
2026-05-07 15:54 47.66696 -122.28136 4002 ft 154 kts 306°
2026-05-07 15:55 47.67274 -122.29447 4005 ft 154 kts 305°
2026-05-07 15:55 47.67865 -122.30769 3998 ft 154 kts 306°
2026-05-07 15:55 47.68446 -122.32113 3997 ft 155 kts 304°
2026-05-07 15:55 47.69026 -122.33448 3995 ft 153 kts 304°
2026-05-07 15:56 47.69608 -122.34777 3995 ft 154 kts 306°
2026-05-07 15:56 47.70185 -122.36126 3996 ft 155 kts 304°
2026-05-07 15:56 47.70571 -122.37017 3996 ft 155 kts 304°
2026-05-07 15:56 47.71155 -122.38369 3992 ft 155 kts 305°
2026-05-07 15:57 47.71874 -122.39500 3991 ft 150 kts 336°
2026-05-07 15:57 47.72878 -122.39831 3993 ft 148 kts 353°
2026-05-07 15:57 47.73897 -122.40059 3994 ft 148 kts 353°
2026-05-07 15:57 47.74911 -122.40297 3996 ft 148 kts 353°
2026-05-07 15:58 47.75927 -122.40528 3996 ft 148 kts 352°
2026-05-07 15:58 47.76945 -122.40744 3997 ft 148 kts 353°
2026-05-07 15:58 47.77963 -122.40960 3996 ft 148 kts 353°
2026-05-07 15:58 47.78981 -122.41174 3996 ft 148 kts 353°
2026-05-07 15:59 47.79997 -122.41385 3997 ft 147 kts 353°
2026-05-07 15:59 47.81012 -122.41604 3980 ft 148 kts 353°
2026-05-07 15:59 47.82037 -122.41722 4000 ft 149 kts
2026-05-07 15:59 47.83062 -122.41739 4003 ft 149 kts
2026-05-07 16:00 47.84106 -122.41759 4004 ft 150 kts
2026-05-07 16:00 47.85152 -122.41777 4009 ft 151 kts
2026-05-07 16:00 47.86205 -122.41802 4010 ft 151 kts
2026-05-07 16:00 47.87253 -122.41832 4007 ft 151 kts
2026-05-07 16:01 47.88304 -122.41857 4008 ft 151 kts
2026-05-07 16:01 47.89360 -122.41876 4007 ft 152 kts
2026-05-07 16:01 47.90417 -122.41896 4004 ft 151 kts
2026-05-07 16:01 47.91464 -122.41916 4000 ft 150 kts
2026-05-07 16:02 47.92499 -122.41941 4001 ft 148 kts 360°
2026-05-07 16:02 47.93532 -122.41963 3999 ft 149 kts
2026-05-07 16:02 47.94567 -122.41981 3996 ft 149 kts
2026-05-07 16:02 47.95602 -122.42006 3995 ft 148 kts 360°
2026-05-07 16:03 47.96631 -122.42026 3994 ft 148 kts
2026-05-07 16:03 47.97662 -122.42041 3993 ft 148 kts
2026-05-07 16:03 47.98695 -122.42064 3989 ft 148 kts
2026-05-07 16:03 47.99713 -122.42087 3965 ft 150 kts
2026-05-07 16:04 48.00752 -122.42107 3834 ft 148 kts
2026-05-07 16:04 48.01779 -122.42151 3694 ft 147 kts
2026-05-07 16:04 48.02803 -122.42196 3565 ft 147 kts
2026-05-07 16:04 48.03820 -122.42239 3436 ft 146 kts
2026-05-07 16:05 48.04840 -122.42292 3305 ft 147 kts 360°
2026-05-07 16:05 48.05865 -122.42334 3175 ft 148 kts
2026-05-07 16:05 48.06896 -122.42371 3047 ft 148 kts
2026-05-07 16:05 48.07920 -122.42358 2982 ft 144 kts 12°
2026-05-07 16:06 48.08686 -122.41522 2975 ft 138 kts 64°
2026-05-07 16:06 48.08769 -122.40151 2979 ft 134 kts 95°
2026-05-07 16:06 48.08702 -122.38768 2980 ft 132 kts 94°
2026-05-07 16:06 48.08638 -122.37397 2979 ft 132 kts 94°
2026-05-07 16:07 48.08573 -122.36028 2978 ft 131 kts 94°
2026-05-07 16:07 48.08507 -122.34666 2980 ft 131 kts 94°
2026-05-07 16:07 48.08369 -122.33329 2984 ft 131 kts 116°
2026-05-07 16:07 48.07732 -122.32370 2984 ft 131 kts 143°
2026-05-07 16:08 48.06982 -122.31604 2982 ft 128 kts 144°
2026-05-07 16:08 48.06275 -122.30892 2978 ft 118 kts 144°
2026-05-07 16:08 48.05623 -122.30233 2988 ft 107 kts 143°
2026-05-07 16:08 48.05118 -122.29495 2980 ft 97 kts 134°
2026-05-07 16:09 48.04566 -122.29000 2963 ft 91 kts 174°
2026-05-07 16:09 48.03969 -122.28946 2981 ft 82 kts 172°
2026-05-07 16:09 48.03377 -122.28881 2864 ft 88 kts 178°
2026-05-07 16:09 48.02762 -122.28843 2773 ft 91 kts 178°
2026-05-07 16:10 48.02119 -122.28815 2677 ft 92 kts 179°
2026-05-07 16:10 48.01485 -122.28784 2580 ft 93 kts 178°
2026-05-07 16:10 48.00847 -122.28755 2471 ft 82 kts 179°
2026-05-07 16:10 48.00327 -122.28718 2305 ft 70 kts 179°
2026-05-07 16:11 47.99849 -122.28683 2128 ft 67 kts 180°
2026-05-07 16:11 47.99403 -122.28639 1946 ft 62 kts 179°
2026-05-07 16:11 47.98971 -122.28589 1754 ft 65 kts 176°
2026-05-07 16:11 47.98494 -122.28542 1600 ft 71 kts 178°
2026-05-07 16:12 47.98003 -122.28579 1497 ft 69 kts 186°
2026-05-07 16:12 47.97510 -122.28646 1349 ft 72 kts 184°
2026-05-07 16:12 47.96998 -122.28680 1217 ft 74 kts 184°
2026-05-07 16:12 47.96487 -122.28712 1123 ft 73 kts 180°
2026-05-07 16:13 47.95985 -122.28642 1052 ft 72 kts 177°
2026-05-07 16:13 47.95482 -122.28585 1009 ft 74 kts 182°
2026-05-07 16:13 47.94954 -122.28586 967 ft 77 kts 184°
2026-05-07 16:13 47.94415 -122.28646 931 ft 77 kts 191°
2026-05-07 16:14 47.93891 -122.28699 890 ft 76 kts 176°
2026-05-07 16:14 47.93360 -122.28623 840 ft 77 kts 176°
2026-05-07 16:14 47.92828 -122.28597 759 ft 76 kts 180°
2026-05-07 16:14 47.92295 -122.28586 618 ft 76 kts 182°
2026-05-07 16:15 47.91812 -122.28568 567 ft 63 kts 183°
2026-05-07 16:15 47.91448 -122.28571 566 ft 34 kts 178°
2026-05-07 16:15 47.91316 -122.28565 568 ft 10 kts 162°
2026-05-07 16:15 47.91289 -122.28452 566 ft 11 kts 90°
2026-05-07 16:16 47.91290 -122.28400 566 ft 0 kts 89°
2026-05-07 16:16 47.91279 -122.28369 570 ft 10 kts 139°
2026-05-07 16:16 47.91169 -122.28348 566 ft 20 kts 179°
2026-05-07 16:17 47.91012 -122.28344 566 ft 24 kts 179°
2026-05-07 16:17 47.90912 -122.28318 568 ft 9 kts 126°
2026-05-07 16:17 47.90863 -122.28241 569 ft 12 kts 135°
2026-05-07 16:17 47.90789 -122.28159 568 ft 13 kts 145°
2026-05-07 16:18 47.90740 -122.28058 565 ft 13 kts 133°
2026-05-07 16:18 47.90661 -122.27937 565 ft 18 kts 135°
2026-05-07 16:18 47.90583 -122.27817 572 ft 14 kts 133°
2026-05-07 16:18 47.90541 -122.27753 567 ft 7 kts 134°
2026-05-07 16:19 47.90546 -122.27721 568 ft 3 kts 325°
2026-05-07 16:19 47.90548 -122.27724 565 ft 0 kts 310°